GW0378 Weather Reports


time (UTC)temp
F
wind
direction
speed
knots
gust
knots
rain 1hr
in
rain 24hr
in
rain mn
in
humidity
%
barometer
mb
20260502235721 74 314 4.3 5.2 0.00 0.00 0.00 26 1015.0
20260502235220 74 343 4.3 4.3 0.00 0.00 0.00 26 1015.1
20260502234715 74 305 3.5 9.6 0.00 0.00 0.00 26 1014.9
20260502234213 74 286 1.7 2.6 0.00 0.00 0.00 25 1015.1
20260502233708 74 102 1.7 3.5 0.00 0.00 0.00 26 1015.0
20260502233205 74 15 2.6 4.3 0.00 0.00 0.00 26 1015.1
20260502232701 74 6 2.6 6.1 0.00 0.00 0.00 27 1015.1
20260502232159 74 10 2.6 4.3 0.00 0.00 0.00 26 1015.2
20260502231655 73 74 2.6 6.1 0.00 0.00 0.00 27 1015.1
20260502231153 74 272 5.2 5.2 0.00 0.00 0.00 25 1015.2
20260502230652 74 210 1.7 4.3 0.00 0.00 0.00 24 1015.2
20260502230150 74 288 7.8 9.6 0.00 0.00 0.00 26 1015.6
20260502225645 74 10 2.6 6.1 0.00 0.00 0.00 25 1015.5
20260502225143 73 331 1.7 5.2 0.00 0.00 0.00 26 1015.5
20260502224638 73 260 0.0 6.1 0.00 0.00 0.00 26 1015.7
20260502224135 73 285 4.3 8.7 0.00 0.00 0.00 26 1015.6
20260502223633 74 263 4.3 7.0 0.00 0.00 0.00 27 1015.7
20260502223131 74 261 4.3 5.2 0.00 0.00 0.00 26 1015.8
20260502222628 74 338 3.5 4.3 0.00 0.00 0.00 24 1015.9
20260502222125 74 333 3.5 4.3 0.00 0.00 0.00 25 1015.9
20260502221620 74 285 0.0 2.6 0.00 0.00 0.00 25 1015.9
20260502221118 73 330 2.6 6.1 0.00 0.00 0.00 26 1016.1
20260502220614 72 0 2.6 5.2 0.00 0.00 0.00 25 1015.9
20260502220110 72 319 1.7 5.2 0.00 0.00 0.00 26 1016.2
20260502215607 72 17 0.0 4.3 0.00 0.00 0.00 24 1016.2
20260502215104 73 0 1.7 7.0 0.00 0.00 0.00 25 1016.4
20260502214601 72 244 6.1 7.0 0.00 0.00 0.00 26 1016.4
20260502214058 73 270 1.7 3.5 0.00 0.00 0.00 26 1016.4
20260502213555 71 287 3.5 6.1 0.00 0.00 0.00 29 1016.5
20260502213053 71 307 4.3 4.3 0.00 0.00 0.00 26 1016.7
20260502212552 72 277 2.6 5.2 0.00 0.00 0.00 27 1016.8
20260502212049 71 282 0.0 4.3 0.00 0.00 0.00 26 1016.8
20260502211545 72 329 4.3 6.1 0.00 0.00 0.00 27 1016.9
20260502211042 71 71 0.9 3.5 0.00 0.00 0.00 26 1016.9
20260502210539 72 96 0.0 5.2 0.00 0.00 0.00 23 1016.8
20260502210036 71 8 3.5 7.0 0.00 0.00 0.00 25 1016.8
20260502205533 71 297 2.6 4.3 0.00 0.00 0.00 23 1017.0
20260502205030 71 260 0.0 4.3 0.00 0.00 0.00 23 1017.0
20260502204526 70 261 1.7 4.3 0.00 0.00 0.00 25 1017.1
20260502204025 70 340 0.9 6.1 0.00 0.00 0.00 23 1017.2
20260502203521 70 264 4.3 7.0 0.00 0.00 0.00 26 1017.1
20260502203018 70 270 2.6 6.1 0.00 0.00 0.00 24 1017.2
20260502202514 70 270 2.6 2.6 0.00 0.00 0.00 27 1017.6
20260502202013 70 315 4.3 4.3 0.00 0.00 0.00 25 1017.4
20260502201509 70 0 1.7 3.5 0.00 0.00 0.00 33 1017.1
20260502201005 70 84 0.0 2.6 0.00 0.00 0.00 34 1017.4
20260502200501 68 112 0.0 4.3 0.00 0.00 0.00 33 1017.6
20260502195959 68 311 2.6 4.3 0.00 0.00 0.00 34 1017.8
20260502195456 68 160 0.9 1.7 0.00 0.00 0.00 35 1017.6
20260502194952 67 282 1.7 3.5 0.00 0.00 0.00 39 1017.6
20260502194449 68 279 1.7 2.6 0.00 0.00 0.00 40 1017.6
20260502193944 67 0 0.0 1.7 0.00 0.00 0.00 39 1017.8
20260502193442 67 320 2.6 4.3 0.00 0.00 0.00 37 1018.0
20260502192937 66 85 2.6 2.6 0.00 0.00 0.00 41 1018.0
20260502192435 65 248 2.6 4.3 0.00 0.00 0.00 40 1018.0
20260502191931 65 291 2.6 3.5 0.00 0.00 0.00 42 1018.2
20260502191429 65 270 4.3 4.3 0.00 0.00 0.00 43 1018.1
20260502190927 64 248 3.5 4.3 0.00 0.00 0.00 43 1018.5
20260502190424 64 278 3.5 5.2 0.00 0.00 0.00 40 1018.5
20260502185920 64 0 2.6 4.3 0.00 0.00 0.00 40 1018.5
20260502185415 64 47 2.6 2.6 0.00 0.00 0.00 43 1018.6
20260502184913 63 255 1.7 3.5 0.00 0.00 0.00 40 1018.6
20260502184408 62 326 1.7 4.3 0.00 0.00 0.00 43 1018.7
20260502183905 62 263 2.6 3.5 0.00 0.00 0.00 41 1019.0
20260502183401 62 209 1.7 2.6 0.00 0.00 0.00 41 1019.2
20260502182856 60 10 2.6 3.5 0.00 0.00 0.00 43 1019.1
20260502182352 61 255 2.6 3.5 0.00 0.00 0.00 42 1019.1
20260502181849 60 327 2.6 3.5 0.00 0.00 0.00 42 1019.1
20260502181348 59 335 4.3 5.2 0.00 0.00 0.00 45 1018.9
20260502180845 59 32 2.6 6.1 0.00 0.00 0.00 45 1019.5
20260502180342 59 270 0.0 3.5 0.00 0.00 0.00 43 1019.2
20260502170301 55 346 0.0 2.6 0.00 0.00 0.00 50 1019.8
20260502164243 54 257 1.7 3.5 0.00 0.00 0.00 53 1019.9
20260502163738 53 90 2.6 3.5 0.00 0.00 0.00 51 1020.1
20260502163235 53 352 1.7 4.3 0.00 0.00 0.00 53 1019.9
20260502162732 53 338 2.6 4.3 0.00 0.00 0.00 53 1020.2
20260502162229 52 37 2.6 3.5 0.00 0.00 0.00 53 1020.0
20260502161726 52 353 0.9 4.3 0.00 0.00 0.00 53 1019.9
20260502161222 52 182 3.5 3.5 0.00 0.00 0.00 53 1020.2
20260502160721 52 289 0.0 2.6 0.00 0.00 0.00 55 1020.2
20260502160219 51 294 0.0 2.6 0.00 0.00 0.00 57 1020.2
20260502152143 50 342 0.9 1.7 0.00 0.00 0.00 59 1020.5
20260502151641 48 270 0.0 1.7 0.00 0.00 0.00 63 1020.3
20260502151138 48 21 0.0 1.7 0.00 0.00 0.00 62 1020.2
20260502150635 48 346 0.0 2.6 0.00 0.00 0.00 65 1020.6
20260502150131 47 174 0.0 2.6 0.00 0.00 0.00 64 1020.5
20260502130520 41 71 0.9 1.7 0.00 0.00 0.00 74 1020.3
20260502123503 41 106 3.5 4.3 0.00 0.00 0.00 73 1020.0
20260502123000 41 74 1.7 4.3 0.00 0.00 0.00 72 1020.0
20260502122456 41 97 3.5 4.3 0.00 0.00 0.00 72 1019.8
20260502121954 41 97 3.5 5.2 0.00 0.00 0.00 72 1019.9
20260502121451 42 101 2.6 4.3 0.00 0.00 0.00 71 1020.0
20260502120948 42 87 2.6 5.2 0.00 0.00 0.00 70 1019.8
20260502120444 42 110 3.5 5.2 0.00 0.00 0.00 71 1019.6
20260502115439 41 115 3.5 4.3 0.00 0.00 0.00 73 1019.8
20260502114935 40 113 3.5 4.3 0.00 0.00 0.00 74 1019.8
20260502114432 41 108 2.6 3.5 0.00 0.00 0.00 74 1019.9
20260502113929 40 109 1.7 2.6 0.00 0.00 0.00 75 1019.8
20260502113427 41 103 2.6 2.6 0.00 0.00 0.00 74 1019.9
20260502112925 41 71 2.6 3.5 0.00 0.00 0.00 73 1019.9
20260502112422 41 109 1.7 2.6 0.00 0.00 0.00 73 1019.9
20260502111920 42 118 2.6 3.5 0.00 0.00 0.00 72 1019.7
20260502111416 42 108 3.5 3.5 0.00 0.00 0.00 71 1019.8
20260502110914 42 103 2.6 2.6 0.00 0.00 0.00 71 1019.7
20260502110412 42 123 1.7 1.7 0.00 0.00 0.00 70 1019.7
20260502105909 43 105 0.0 1.7 0.00 0.00 0.00 68 1019.7
20260502105406 43 151 0.0 1.7 0.00 0.00 0.00 67 1019.6
20260502104904 45 90 0.9 3.5 0.00 0.00 0.00 64 1019.7
20260502104401 46 106 1.7 2.6 0.00 0.00 0.00 61 1019.6
20260502103858 45 45 1.7 4.3 0.00 0.00 0.00 64 1019.3
20260502103356 45 105 2.6 4.3 0.00 0.00 0.00 64 1019.6
20260502102852 45 101 2.6 4.3 0.00 0.00 0.00 64 1019.2
20260502102349 45 115 3.5 6.1 0.00 0.00 0.00 65 1019.6
20260502101846 45 101 6.1 6.1 0.00 0.00 0.00 66 1019.1
20260502101345 44 106 4.3 7.0 0.00 0.00 0.00 67 1019.5
20260502100843 44 123 3.5 6.1 0.00 0.00 0.00 68 1019.3
20260502100342 44 105 4.3 7.0 0.00 0.00 0.00 68 1019.1
20260502091315 45 127 1.7 1.7 0.00 0.00 0.00 65 1019.2
20260502090813 46 103 2.6 4.3 0.00 0.00 0.00 63 1019.0
20260502090309 45 110 3.5 3.5 0.00 0.00 0.00 65 1019.3
20260502071205 48 97 2.6 2.6 0.00 0.00 0.00 61 1018.8
20260502070703 48 115 1.7 2.6 0.00 0.00 0.00 61 1018.8
20260502070200 49 119 1.7 2.6 0.00 0.00 0.00 58 1018.8
20260502065659 49 97 2.6 2.6 0.00 0.00 0.00 58 1018.8
20260502065156 49 90 1.7 1.7 0.00 0.00 0.00 57 1018.7
20260502064655 49 86 2.6 2.6 0.00 0.00 0.00 57 1018.5
20260502064151 50 135 1.7 2.6 0.00 0.00 0.00 57 1018.7
20260502063649 49 103 1.7 2.6 0.00 0.00 0.00 59 1018.6
20260502063147 49 93 2.6 3.5 0.00 0.00 0.00 59 1018.1
20260502062643 50 99 2.6 2.6 0.00 0.00 0.00 58 1018.5
20260502062141 49 115 1.7 2.6 0.00 0.00 0.00 60 1018.3
20260502061639 50 130 2.6 2.6 0.00 0.00 0.00 57 1018.6
20260502061137 51 99 2.6 3.5 0.00 0.00 0.00 55 1018.1
20260502060636 50 139 1.7 2.6 0.00 0.00 0.00 57 1018.1
20260502060133 50 108 2.6 3.5 0.00 0.00 0.00 55 1017.9
20260502055631 51 93 2.6 6.1 0.00 0.00 0.00 53 1018.1
20260502055129 52 115 2.6 7.0 0.00 0.00 0.00 52 1018.2
20260502054628 51 90 3.5 5.2 0.00 0.00 0.00 53 1018.0
20260502054125 51 77 2.6 4.3 0.00 0.00 0.00 53 1017.8
20260502053622 51 105 3.5 4.3 0.00 0.00 0.00 53 1018.1
20260502053119 51 97 2.6 3.5 0.00 0.00 0.00 54 1018.0
20260502052617 51 117 0.9 2.6 0.00 0.00 0.00 56 1017.9
20260502052115 52 104 2.6 2.6 0.00 0.00 0.00 52 1018.0
20260502051613 52 77 2.6 4.3 0.00 0.00 0.00 50 1017.9
20260502051111 52 103 3.5 3.5 0.00 0.00 0.00 52 1017.9
20260502050607 53 94 2.6 3.5 0.00 0.00 0.00 49 1017.7
20260502050104 53 145 0.9 1.7 0.00 0.00 0.00 50 1017.9
20260502045600 53 132 1.7 2.6 0.00 0.00 0.00 51 1017.7
20260502045058 53 113 2.6 3.5 0.00 0.00 0.00 49 1017.7
20260502044554 53 127 2.6 3.5 0.00 0.00 0.00 49 1017.7
20260502044051 53 113 2.6 3.5 0.00 0.00 0.00 48 1017.8
20260502043548 54 106 1.7 3.5 0.00 0.00 0.00 47 1017.8
20260502043044 54 134 3.5 4.3 0.00 0.00 0.00 48 1017.7
20260502042539 55 96 4.3 7.0 0.00 0.00 0.00 45 1017.6
20260502042037 55 102 7.0 7.8 0.00 0.00 0.00 45 1017.4
20260502041535 55 106 4.3 6.1 0.00 0.00 0.00 46 1017.5
20260502041031 55 110 3.5 8.7 0.00 0.00 0.00 46 1017.6
20260502040528 54 111 6.1 9.6 0.00 0.00 0.00 45 1017.6
20260502040025 55 83 3.5 4.3 0.00 0.00 0.00 47 1017.6
20260502035521 56 87 2.6 4.3 0.00 0.00 0.00 45 1017.4
20260502035019 56 108 4.3 4.3 0.00 0.00 0.00 45 1017.4
20260502034516 56 95 4.3 5.2 0.00 0.00 0.00 44 1017.4
20260502034015 57 69 2.6 5.2 0.00 0.00 0.00 43 1017.2
20260502033513 56 90 3.5 5.2 0.00 0.00 0.00 44 1017.2
20260502033010 57 105 3.5 9.6 0.00 0.00 0.00 45 1017.2
20260502032505 58 97 2.6 6.1 0.00 0.00 0.00 42 1017.1
20260502032003 58 98 4.3 5.2 0.00 0.00 0.00 43 1016.9
20260502031500 59 117 4.3 7.0 0.00 0.00 0.00 42 1017.0
20260502030958 60 103 5.2 7.8 0.00 0.00 0.00 40 1016.8
20260502030456 59 112 4.3 6.1 0.00 0.00 0.00 40 1016.9
20260502025954 60 74 2.6 6.1 0.00 0.00 0.00 42 1016.7
20260502025451 61 119 4.3 6.1 0.00 0.00 0.00 40 1016.7
20260502024949 61 114 4.3 6.1 0.00 0.00 0.00 39 1016.7
20260502024447 61 124 3.5 5.2 0.00 0.00 0.00 40 1016.6
20260502023945 62 110 3.5 4.3 0.00 0.00 0.00 41 1016.6
20260502023442 63 105 4.3 5.2 0.00 0.00 0.00 38 1016.6
20260502022939 62 106 2.6 2.6 0.00 0.00 0.00 40 1016.7
20260502022435 63 118 2.6 3.5 0.00 0.00 0.00 38 1016.6
20260502021932 64 83 2.6 3.5 0.00 0.00 0.00 37 1016.5
20260502021430 66 106 2.6 2.6 0.00 0.00 0.00 35 1016.1
20260502020927 68 99 0.0 0.9 0.00 0.00 0.00 32 1016.4
20260502020425 69 278 0.0 0.0 0.00 0.00 0.00 31 1016.2
20260502015921 71 278 0.0 0.0 0.00 0.00 0.00 30 1016.5
20260502015419 71 289 0.9 2.6 0.00 0.00 0.00 27 1016.5
20260502014915 71 289 2.6 4.3 0.00 0.00 0.00 26 1016.1
20260502014413 72 270 1.7 3.5 0.00 0.00 0.00 26 1016.5
20260502013909 72 252 2.6 2.6 0.00 0.00 0.00 26 1016.6
20260502013404 72 270 1.7 2.6 0.00 0.00 0.00 26 1016.5
20260502012901 73 296 2.6 3.5 0.00 0.00 0.00 26 1016.6
20260502012359 73 281 2.6 3.5 0.00 0.00 0.00 25 1016.6
20260502011856 74 289 2.6 2.6 0.00 0.00 0.00 25 1016.6
20260502011352 74 260 0.0 2.6 0.00 0.00 0.00 24 1016.6
20260502010849 74 286 0.0 3.5 0.00 0.00 0.00 24 1016.7
20260502010346 74 261 0.0 1.7 0.00 0.00 0.00 25 1016.7
20260502005843 74 335 3.5 3.5 0.00 0.00 0.00 25 1016.7
20260502005341 74 346 2.6 2.6 0.00 0.00 0.00 27 1016.7
20260502004838 73 345 1.7 4.3 0.00 0.00 0.00 25 1016.6
20260502004333 74 279 1.7 3.5 0.00 0.00 0.00 27 1016.5
20260502003832 74 315 3.5 4.3 0.00 0.00 0.00 26 1016.9
20260502003328 74 225 1.7 2.6 0.00 0.00 0.00 26 1016.6
20260502002825 74 289 1.7 3.5 0.00 0.00 0.00 27 1016.7
20260502002322 73 123 0.0 4.3 0.00 0.00 0.00 25 1016.8
20260502001819 73 326 2.6 3.5 0.00 0.00 0.00 25 1016.9
20260502001317 74 191 3.5 4.3 0.00 0.00 0.00 24 1016.7
20260502000814 75 232 3.5 3.5 0.00 0.00 0.00 25 1016.8
20260502000312 74 355 0.0 1.7 0.00 0.00 0.00 28 1016.7